EW3259 Weather Reports


time (UTC)temp
C
wind
direction
speed
KPH
gust
KPH
rain 1hr
cm
rain 24hr
cm
rain mn
cm
humidity
%
barometer
mb
20260510175306 25 323 4.8 6.4 0.00 0.00 0.00 52 982.6
20260510174402 26 331 3.2 6.4 0.00 0.00 0.00 52 982.9
20260510172602 26 105 3.2 6.4 0.00 0.00 0.00 55 982.8
20260510171702 26 151 4.8 9.7 0.00 0.00 0.00 51 982.9
20260510170803 27 127 3.2 9.7 0.00 0.00 0.00 51 982.9
20260510165903 27 67 4.8 6.4 0.00 0.00 0.00 51 983.1
20260510165002 26 95 3.2 6.4 0.00 0.00 0.00 50 982.9
20260510163203 26 30 1.6 4.8 0.00 0.00 0.00 60 983.0
20260510162305 26 11 1.6 4.8 0.00 0.00 0.00 59 982.9
20260510160502 26 102 4.8 9.7 0.00 0.00 0.00 67 983.0
20260510155602 25 124 1.6 11.3 0.00 0.00 0.00 68 983.0
20260510154702 25 134 6.4 11.3 0.00 0.00 0.00 70 983.0
20260510153802 25 130 4.8 9.7 0.00 0.00 0.00 71 983.0
20260510152902 25 131 4.8 8.0 0.00 0.00 0.00 72 982.9
20260510152002 25 148 6.4 8.0 0.00 0.00 0.00 73 983.0
20260510151102 25 166 4.8 8.0 0.00 0.00 0.00 75 982.9
20260510150202 23 146 3.2 8.0 0.00 0.00 0.00 77 983.0
20260510145305 23 148 4.8 8.0 0.00 0.00 0.00 79 982.8
20260510144402 22 126 3.2 11.3 0.00 0.00 0.00 79 982.8
20260510141703 22 125 4.8 4.8 0.00 0.00 0.00 88 983.0
20260510140802 21 20 1.6 6.4 0.00 0.00 0.00 90 982.8
20260510133202 20 106 0.0 4.8 0.00 0.00 0.00 96 982.7
20260510132305 20 78 0.0 3.2 0.00 0.00 0.00 97 982.6
20260510131402 19 353 0.0 3.2 0.00 0.00 0.00 98 982.6
20260510130502 18 345 0.0 3.2 0.00 0.00 0.00 98 982.6
20260510125602 17 325 0.0 3.2 0.00 0.00 0.00 97 982.7
20260510124702 16 321 0.0 3.2 0.00 0.00 0.00 98 982.6
20260510123802 15 0 0.0 0.0 0.00 0.00 0.00 99 982.6
20260510122902 14 314 0.0 1.6 0.00 0.00 0.00 99 982.6
20260510121101 13 1 0.0 1.6 0.00 0.00 0.00 99 982.4
20260510115305 12 60 0.0 6.4 0.00 0.00 0.00 99 982.0
20260510114402 12 322 1.6 3.2 0.00 0.00 0.00 97 981.7
20260510113503 12 314 0.0 3.2 0.00 0.00 0.00 97 981.5
20260510112602 12 338 0.0 3.2 0.00 0.00 0.00 97 981.5
20260510105903 12 330 0.0 3.2 0.00 0.00 0.00 97 981.1
20260510105003 12 0 0.0 0.0 0.00 0.00 0.00 97 981.2
20260510104102 12 353 0.0 3.2 0.00 0.00 0.00 97 981.0
20260510102305 12 188 0.0 3.2 0.00 0.00 0.00 97 980.5
20260510101402 13 0 0.0 0.0 0.00 0.00 0.00 98 980.5
20260510094702 13 0 0.0 0.0 0.00 0.00 0.00 98 980.5
20260510093802 13 0 0.0 0.0 0.00 0.00 0.00 98 980.3
20260510092002 13 354 0.0 3.2 0.00 0.00 0.00 98 980.5
20260510091102 13 1 1.6 3.2 0.00 0.00 0.00 98 980.3
20260510090202 14 0 0.0 0.0 0.00 0.00 0.00 98 980.3
20260510085302 14 0 0.0 0.0 0.00 0.00 0.00 98 980.4
20260510084402 14 0 0.0 0.0 0.00 0.00 0.00 97 980.3
20260510082602 14 0 0.0 0.0 0.00 0.00 0.00 97 980.3
20260510081702 15 0 0.0 0.0 0.00 0.00 0.00 96 980.0
20260510080803 15 0 0.0 0.0 0.00 0.00 0.00 96 979.9
20260510075903 15 0 0.0 0.0 0.00 0.00 0.00 96 979.9
20260510074102 15 114 0.0 3.2 0.00 0.00 0.00 96 979.8
20260510072305 16 45 0.0 1.6 0.00 0.00 0.00 95 979.7
20260510071401 16 191 0.0 3.2 0.00 0.00 0.00 95 979.7
20260510070501 16 122 0.0 3.2 0.00 0.00 0.00 95 979.8
20260510065602 16 1 0.0 1.6 0.00 0.00 0.00 94 979.8
20260510064701 16 82 0.0 3.2 0.00 0.00 0.00 95 979.8
20260510063801 16 301 0.0 3.2 0.00 0.00 0.00 94 979.5
20260510062901 16 22 0.0 1.6 0.00 0.00 0.00 94 979.7
20260510062001 16 0 0.0 0.0 0.00 0.00 0.00 93 979.6
20260510061102 16 45 0.0 1.6 0.00 0.00 0.00 94 979.7
20260510055306 17 51 0.0 3.2 0.00 0.00 0.00 92 979.8
20260510054401 17 43 1.6 4.8 0.00 0.00 0.00 92 979.9
20260510052601 17 54 1.6 3.2 0.00 0.00 0.00 92 979.8
20260510051701 17 35 0.0 3.2 0.00 0.00 0.00 91 979.9
20260510050801 17 47 0.0 3.2 0.00 0.00 0.00 91 979.9
20260510045901 17 49 1.6 4.8 0.00 0.00 0.00 91 979.8
20260510045003 17 76 0.0 4.8 0.00 0.00 0.00 91 980.0
20260510044101 17 50 0.0 4.8 0.00 0.00 0.00 91 980.0
20260510043201 17 47 1.6 4.8 0.00 0.00 0.00 91 979.8
20260510042305 17 38 1.6 3.2 0.00 0.00 0.00 91 979.9
20260510041401 17 10 0.0 3.2 0.00 0.00 0.00 91 979.9
20260510040502 16 282 0.0 3.2 0.00 0.00 0.00 91 980.1
20260510035601 16 28 0.0 3.2 0.00 0.00 0.00 91 979.9
20260510034701 15 2 0.0 3.2 0.00 0.00 0.00 91 979.9
20260510033803 15 14 0.0 3.2 0.00 0.00 0.00 91 979.9
20260510032901 15 45 0.0 1.6 0.00 0.00 0.00 91 979.8
20260510031101 15 27 0.0 3.2 0.00 0.00 0.00 90 980.1
20260510030201 15 45 0.0 3.2 0.00 0.00 0.00 90 979.9
20260510025301 15 46 1.6 3.2 0.00 0.00 0.00 88 979.6
20260510024401 16 45 0.0 1.6 0.00 0.00 0.00 87 979.6
20260510023503 16 11 0.0 1.6 0.00 0.00 0.00 86 979.4
20260510022601 16 1 0.0 1.6 0.00 0.00 0.00 85 979.3
20260510021701 16 0 0.0 0.0 0.00 0.00 0.00 83 979.2
20260510020801 16 56 0.0 1.6 0.00 0.00 0.00 83 979.0
20260510015901 17 74 0.0 1.6 0.00 0.00 0.00 80 979.0
20260510015002 17 1 0.0 1.6 0.00 0.00 0.00 79 978.7
20260510014101 17 1 0.0 1.6 0.00 0.00 0.00 78 978.5
20260510013201 17 1 0.0 3.2 0.00 0.00 0.00 77 978.4
20260510012301 18 0 0.0 0.0 0.00 0.00 0.00 76 978.4
20260510011401 18 0 0.0 0.0 0.00 0.00 0.00 75 978.0
20260510010503 19 0 0.0 0.0 0.00 0.00 0.00 72 978.0
20260510005601 20 1 0.0 3.2 0.00 0.00 0.00 72 977.9
20260510004702 20 1 1.6 3.2 0.00 0.00 0.00 69 977.8
20260510003803 21 0 0.0 0.0 0.00 0.00 0.00 64 977.6
20260510002001 22 1 0.0 3.2 0.00 0.00 0.00 59 977.6
20260510001101 23 11 0.0 1.6 0.00 0.00 0.00 60 977.5
20260510000203 24 29 0.0 1.6 0.00 0.00 0.00 61 977.4
20260509234402 24 75 0.0 3.2 0.00 0.00 0.00 54 977.4
20260509233502 23 61 1.6 3.2 0.00 0.00 0.00 58 977.4
20260509232601 23 45 0.0 3.2 0.00 0.00 0.00 59 977.5
20260509231701 23 81 1.6 3.2 0.00 0.00 0.00 54 977.6
20260509225901 25 137 1.6 6.4 0.00 0.00 0.00 51 977.6
20260509222306 25 141 1.6 6.4 0.00 0.00 0.00 50 976.9
20260509221401 25 141 4.8 6.4 0.00 0.00 0.00 50 977.1
20260509214701 26 141 6.4 8.0 0.00 0.00 0.00 50 976.8
20260509213801 26 118 6.4 9.7 0.00 0.00 0.00 51 977.0
20260509212901 26 166 6.4 8.0 0.00 0.00 0.00 49 976.9
20260509211101 26 82 1.6 8.0 0.00 0.00 0.00 48 977.0
20260509205301 26 150 6.4 11.3 0.00 0.00 0.00 45 977.1
20260509203501 25 138 4.8 6.4 0.00 0.00 0.00 54 977.2
20260509202601 26 114 4.8 6.4 0.00 0.00 0.00 52 977.3
20260509201702 25 36 1.6 6.4 0.00 0.00 0.00 53 977.4
20260509195902 26 81 3.2 6.4 0.00 0.00 0.00 50 977.5
20260509195001 26 70 4.8 8.0 0.00 0.00 0.00 53 977.4
20260509194101 25 83 4.8 11.3 0.00 0.00 0.00 54 977.3
20260509193201 25 43 3.2 9.7 0.00 0.00 0.00 55 977.4
20260509190501 25 71 3.2 9.7 0.00 0.00 0.00 56 977.8
20260509184701 25 159 4.8 12.9 0.00 0.00 0.00 58 978.1
20260509183801 25 69 8.0 12.9 0.00 0.00 0.00 57 977.9
20260509182902 25 57 6.4 8.0 0.00 0.00 0.00 60 978.0
20260509182001 23 97 4.8 8.0 0.00 0.00 0.00 64 978.0
20260509181101 23 326 6.4 8.0 0.00 0.00 0.00 62 978.2
20260509180201 23 41 3.2 17.7 0.00 0.00 0.00 62 978.0